[[{"header":{"parameterUnit":"m.s-1","parameterCategory":2,"la1":30.2991,"la2":30.254,"lo1":-89.0895,"lo2":-89.0444,"dy":0.0017,"dx":0.0017,"nx":28,"ny":28,"refTime":"2024-10-21T21:00:00:Z","depth":"0","parameterNumber":2,"parameterNumberName":"U-component_of_CURRENTS"},"data":[0,0,0,0,0,0,0,0,0,0,0,0,0,0,0,0,0,0,0,0,0,0,0,0,0,0,0,0,0,0,0,0,0,0,0,0,0,0,0,0,0,0,0,0,0,0,0,0,0,0,0,0,0,0,0,0,0,0,0.2501,0.2501,0,0.2448,0.2447,0.2447,0.2413,0.2413,0.2413,0.2413,0.2276,0.2272,0.2268,0,0,0,0,0,0,0,0,0,0,0,0,0,0.2542,0.2541,0.2501,0.2501,0.25,0.2448,0.2447,0.2446,0.2413,0.2413,0.2413,0.2413,0.2277,0.2273,0.2268,0,0,0,0,0,0,0,0,0,0,0,0,0,0.2507,0.2541,0.2501,0.2479,0.2477,0.2449,0.2447,0.2446,0.2413,0.2413,0.2413,0.2413,0.2278,0.2273,0.2267,0.2231,0,0,0.225,0.2248,0,0,0,0,0,0,0,0,0.2509,0.2505,0.2483,0.2481,0.2478,0.244,0.2412,0.2371,0.2413,0.2434,0.2413,0.2413,0.2325,0.2315,0.2302,0.2224,0.2218,0.225,0.2247,0.2244,0.2243,0,0,0,0,0,0,0,0.2512,0.2507,0.2477,0.2483,0.248,0.2462,0.2457,0.2404,0.2375,0.2432,0.243,0.2429,0.2322,0.2308,0.2298,0.2216,0.225,0.2245,0.2242,0.2239,0.2127,0.2127,0,0,0,0,0,0,0.2526,0.251,0.2479,0.2476,0.2498,0.2462,0.2456,0.245,0.2378,0.2368,0.2429,0.2428,0.2317,0.2305,0.2293,0.225,0.2244,0.2239,0.2236,0.2127,0.2127,0.2127,0,0,0,0,0,0,0.2527,0.2523,0.2481,0.2494,0.2488,0.2461,0.2454,0.2449,0.2435,0.2377,0.2366,0.2422,0.2317,0.2301,0.2257,0.2245,0.2236,0.2231,0.2126,0.2127,0.2127,0.2161,0,0,0,0,0,0,0.2528,0.2524,0.2515,0.2495,0.2488,0.2459,0.2454,0.2448,0.2436,0.2434,0.2367,0.2355,0.2316,0.2266,0.2252,0.2237,0.2227,0.2126,0.2126,0.2127,0.2159,0.2163,0.2165,0,0,0,0,0,0.2529,0.2509,0.2515,0.2511,0.248,0.2459,0.2453,0.2433,0.2436,0.2422,0.2393,0.2357,0.2261,0.2262,0.2245,0.2228,0.2125,0.2126,0.2127,0.2158,0.2162,0.2165,0,0,0,0,0,0,0.2506,0.2503,0.251,0.2486,0.2478,0.2454,0.2435,0.2436,0.2403,0.2399,0.2354,0.2339,0.2299,0.2263,0.2266,0.2202,0.2189,0.2186,0.2218,0.2221,0.2224,0.2217,0.2222,0,0,0,0,0,0.2505,0.2492,0.2492,0.2469,0.2469,0.2458,0.2446,0.244,0.2415,0.2401,0.2363,0.2324,0.2288,0.2257,0.2218,0.2172,0.2161,0.2155,0.2158,0.216,0.2145,0.2139,0.214,0.213,0.213,0.213,0,0,0.2485,0.2484,0.2474,0.2465,0.2455,0.2441,0.2449,0.2431,0.2417,0.2389,0.2348,0.233,0.2283,0.2242,0.2219,0.2207,0.2162,0.2161,0.2164,0.2147,0.214,0.2141,0.2141,0.2131,0.2131,0.213,0,0,0.2444,0.2446,0.2429,0.2429,0.2426,0.242,0.2421,0.2409,0.2401,0.2372,0.2358,0.234,0.227,0.2245,0.2221,0.2215,0.2185,0.2202,0.2196,0.219,0.2191,0.2191,0.22,0.22,0.2195,0.2196,0.2196,0,0.2422,0.2407,0.2418,0.2409,0.2403,0.2415,0.2399,0.2389,0.2364,0.2357,0.2359,0.23,0.2269,0.2228,0.2233,0.2218,0.2216,0.2185,0.2194,0.2194,0.2193,0.2202,0.2202,0.2197,0.2197,0.2197,0.2197,0,0.238,0.237,0.2358,0.2355,0.235,0.2335,0.2341,0.2332,0.2334,0.2328,0.2304,0.2283,0.2247,0.2244,0.223,0.2212,0.2214,0.2207,0.2185,0.2196,0.2205,0.2205,0.22,0.2199,0.2199,0.2198,0,0,0.2318,0.2328,0.2323,0.2322,0.2326,0.2314,0.23,0.2289,0.2277,0.2272,0.2253,0.2228,0.2236,0.2212,0.2207,0.2203,0.2217,0.2203,0.2202,0.2211,0.2216,0.2187,0.2184,0.2213,0.2213,0.2212,0.2231,0,0.228,0.2259,0.2275,0.2246,0.2237,0.2256,0.224,0.2236,0.2235,0.222,0.2224,0.2201,0.2217,0.2208,0.221,0.2208,0.2214,0.2213,0.2202,0.2201,0.2174,0.2181,0.2109,0.2115,0.223,0.223,0.223,0,0.2236,0.223,0.2204,0.2206,0.2204,0.2188,0.2177,0.2167,0.2163,0.2166,0.2162,0.2166,0.2161,0.2179,0.2186,0.2185,0.2201,0.2209,0.221,0.2163,0.2171,0.2117,0.211,0.1886,0.2229,0.2229,0.2229,0,0.2189,0.218,0.2159,0.2158,0.2159,0.2149,0.2145,0.2144,0.2134,0.2129,0.212,0.2128,0.2118,0.2142,0.2166,0.2175,0.2176,0.2192,0.2185,0.2184,0.2106,0.2099,0.1874,0.2198,0.2198,0.2198,0.2198,0,0.2142,0.2121,0.2134,0.212,0.2092,0.211,0.2082,0.2085,0.2081,0.2057,0.2087,0.2065,0.2107,0.2115,0.2152,0.216,0.2167,0.2177,0.2179,0.2119,0.2113,0.1901,0.1799,0.2199,0.2199,0.2199,0.2199,0,0.2082,0.2093,0.2071,0.2073,0.2068,0.2048,0.2042,0.2026,0.203,0.1999,0.1996,0.201,0.2019,0.2065,0.2095,0.2125,0.2047,0.2152,0.2085,0.2078,0.1867,0.1772,0.1643,0.1616,0.215,0.215,0.2149,0,0.2049,0.2032,0.2032,0.2018,0.2013,0.1992,0.198,0.1992,0.1975,0.1957,0.1934,0.1938,0.1932,0.1976,0.2027,0.2084,0.1981,0.2045,0.2047,0.1824,0.1721,0.171,0.1698,0.1973,0.1971,0.197,0.1968,0,0.1986,0.1991,0.1977,0.1959,0.1943,0.1919,0.19,0.1887,0.1891,0.187,0.1839,0.1835,0.1868,0.188,0.1948,0.1978,0.1871,0.2013,0.1785,0.1554,0.1523,0.1508,0.2001,0.1954,0.1955,0.1956,0.1957,0.1958,0.1941,0.1924,0.1921,0.1897,0.1881,0.185,0.1816,0.1801,0.1773,0.1717,0.1749,0.171,0.1717,0.1801,0.1809,0.1678,0.1759,0.16,0.1509,0.1525,0.146,0.1925,0.1874,0.1875,0.1876,0.1876,0.1877,0,0.1892,0.1882,0.186,0.1835,0.1805,0.1806,0.1763,0.1719,0.1673,0.1631,0.16,0.1536,0.1485,0.1464,0.1346,0.1178,0.1228,0.1049,0.0963,0.0988,0.1378,0.1323,0.1143,0.1143,0.1143,0.1143,0.1143,0.1144,0.1866,0.1839,0.1833,0.1775,0.1751,0.1685,0.1654,0.1582,0.1539,0.1425,0.1352,0.1331,0.1148,0.0802,0.0548,0.0555,0.0435,0.0423,0.0408,0.0557,0.06,0.0641,0.0561,0.0224,0.0222,0.0068,0.0064,0.0062]},{"header":{"parameterUnit":"m.s-1","parameterCategory":2,"la1":30.2991,"la2":30.254,"lo1":-89.0895,"lo2":-89.0444,"dy":0.0017,"dx":0.0017,"nx":28,"ny":28,"refTime":"2024-10-21T21:00:00:Z","depth":"0","parameterNumber":3,"parameterNumberName":"V-component_of_CURRENTS"},"data":[0,0,0,0,0,0,0,0,0,0,0,0,0,0,0,0,0,0,0,0,0,0,0,0,0,0,0,0,0,0,0,0,0,0,0,0,0,0,0,0,0,0,0,0,0,0,0,0,0,0,0,0,0,0,0,0,0,0,-0.1185,-0.1185,0,-0.1192,-0.1192,-0.1192,-0.1174,-0.1173,-0.1173,-0.1173,-0.1159,-0.1159,-0.1159,0,0,0,0,0,0,0,0,0,0,0,0,0,-0.1051,-0.1054,-0.1185,-0.1185,-0.1186,-0.1192,-0.1192,-0.1192,-0.1174,-0.1173,-0.1173,-0.1173,-0.1159,-0.1159,-0.1159,0,0,0,0,0,0,0,0,0,0,0,0,0,-0.1086,-0.1055,-0.1185,-0.118,-0.118,-0.1192,-0.1192,-0.1191,-0.1174,-0.1173,-0.1173,-0.1173,-0.1159,-0.1159,-0.1159,-0.1164,0,0,-0.1158,-0.1158,0,0,0,0,0,0,0,0,-0.1084,-0.109,-0.118,-0.118,-0.118,-0.1185,-0.114,-0.1183,-0.1174,-0.1172,-0.1173,-0.1172,-0.1168,-0.1167,-0.1165,-0.1164,-0.1163,-0.1158,-0.1158,-0.1158,-0.1158,0,0,0,0,0,0,0,-0.1082,-0.1089,-0.1184,-0.1181,-0.1181,-0.1142,-0.1147,-0.1147,-0.1169,-0.1172,-0.1172,-0.1179,-0.1168,-0.1165,-0.1164,-0.1163,-0.1158,-0.1158,-0.1158,-0.1158,-0.1153,-0.1153,0,0,0,0,0,0,-0.1095,-0.1088,-0.1184,-0.1184,-0.1135,-0.1146,-0.1151,-0.1181,-0.1169,-0.1168,-0.1179,-0.1178,-0.1165,-0.1164,-0.1164,-0.1158,-0.1158,-0.1158,-0.1157,-0.1153,-0.1153,-0.1153,0,0,0,0,0,0,-0.1092,-0.1104,-0.1183,-0.1137,-0.1145,-0.115,-0.1182,-0.1181,-0.1179,-0.1175,-0.1173,-0.1179,-0.1165,-0.1164,-0.1163,-0.1158,-0.1158,-0.1157,-0.1153,-0.1153,-0.1153,-0.1154,0,0,0,0,0,0,-0.1089,-0.1104,-0.1123,-0.1139,-0.1149,-0.1192,-0.1183,-0.1182,-0.1186,-0.1184,-0.1175,-0.1173,-0.1165,-0.1164,-0.1163,-0.1157,-0.1157,-0.1153,-0.1153,-0.1153,-0.1154,-0.1154,-0.1154,0,0,0,0,0,-0.1084,-0.1115,-0.1125,-0.1136,-0.1179,-0.1193,-0.1193,-0.1191,-0.1186,-0.1187,-0.118,-0.1173,-0.1163,-0.1164,-0.1163,-0.1157,-0.1153,-0.1153,-0.1153,-0.1154,-0.1154,-0.1154,0,0,0,0,0,0,-0.106,-0.1117,-0.1128,-0.1173,-0.1183,-0.1191,-0.1198,-0.1194,-0.1189,-0.1189,-0.1177,-0.1175,-0.117,-0.1168,-0.1168,-0.1156,-0.1156,-0.1156,-0.1156,-0.1156,-0.1156,-0.1151,-0.1157,0,0,0,0,0,-0.1069,-0.1109,-0.1142,-0.1172,-0.1187,-0.1192,-0.1197,-0.1196,-0.1198,-0.1195,-0.1186,-0.1178,-0.117,-0.1167,-0.1161,-0.1159,-0.1135,-0.1154,-0.1154,-0.1154,-0.115,-0.1113,-0.1109,-0.1153,-0.1153,-0.1153,0,0,-0.106,-0.1101,-0.1118,-0.1169,-0.1181,-0.1196,-0.1193,-0.1207,-0.1203,-0.1195,-0.1186,-0.118,-0.117,-0.1163,-0.116,-0.116,-0.1127,-0.1154,-0.1154,-0.1149,-0.1112,-0.1108,-0.1104,-0.1153,-0.1153,-0.1153,0,0,-0.1066,-0.1111,-0.1145,-0.1163,-0.1195,-0.1198,-0.1204,-0.1216,-0.1209,-0.1205,-0.1194,-0.1184,-0.1177,-0.1163,-0.1156,-0.1156,-0.1129,-0.1155,-0.1151,-0.1115,-0.1111,-0.1107,-0.1061,-0.1053,-0.1155,-0.1155,-0.1155,0,-0.1047,-0.111,-0.1148,-0.1182,-0.1193,-0.1201,-0.1216,-0.1213,-0.1212,-0.1202,-0.1203,-0.1177,-0.1173,-0.1153,-0.1153,-0.1154,-0.1127,-0.1151,-0.1114,-0.111,-0.1106,-0.1059,-0.105,-0.1155,-0.1155,-0.1155,-0.1155,0,-0.1079,-0.1123,-0.1144,-0.1194,-0.1203,-0.1219,-0.1228,-0.1224,-0.1216,-0.1205,-0.1186,-0.1176,-0.1157,-0.1156,-0.1155,-0.1125,-0.1112,-0.1118,-0.1112,-0.1101,-0.1053,-0.1044,-0.1155,-0.1155,-0.1155,-0.1155,0,0,-0.1047,-0.1145,-0.115,-0.1174,-0.1212,-0.1218,-0.1219,-0.1215,-0.1201,-0.1194,-0.1167,-0.1159,-0.1148,-0.114,-0.1133,-0.1108,-0.1056,-0.1102,-0.11,-0.1052,-0.0964,-0.0924,-0.0909,-0.1054,-0.1053,-0.1052,-0.0939,0,-0.1052,-0.1119,-0.116,-0.1186,-0.1217,-0.1225,-0.1218,-0.121,-0.1196,-0.1171,-0.1155,-0.1132,-0.1143,-0.1129,-0.1107,-0.107,-0.1033,-0.1085,-0.0986,-0.0982,-0.0944,-0.0898,-0.0809,-0.0698,-0.093,-0.0928,-0.0927,0,-0.1069,-0.1115,-0.1155,-0.1196,-0.1205,-0.1207,-0.1192,-0.1188,-0.1162,-0.115,-0.1128,-0.1113,-0.1077,-0.1088,-0.1011,-0.1042,-0.1002,-0.0973,-0.0968,-0.0923,-0.0924,-0.0749,-0.0672,-0.0589,-0.0912,-0.0913,-0.0914,0,-0.1033,-0.1104,-0.1132,-0.1149,-0.1193,-0.1189,-0.1191,-0.1175,-0.1163,-0.1131,-0.111,-0.1074,-0.1042,-0.0997,-0.0946,-0.0972,-0.085,-0.0877,-0.0797,-0.0793,-0.0693,-0.0683,-0.052,-0.0809,-0.0809,-0.081,-0.081,0,-0.1029,-0.1046,-0.1119,-0.1134,-0.1138,-0.1171,-0.1154,-0.1148,-0.1133,-0.1107,-0.1095,-0.1058,-0.1017,-0.0951,-0.0917,-0.0815,-0.0821,-0.0775,-0.0755,-0.0691,-0.0682,-0.0589,-0.058,-0.0805,-0.0806,-0.0807,-0.0808,0,-0.0978,-0.1037,-0.1068,-0.1119,-0.1129,-0.1124,-0.1139,-0.1125,-0.1116,-0.108,-0.1067,-0.1023,-0.0939,-0.0884,-0.0793,-0.076,-0.0617,-0.0645,-0.0567,-0.054,-0.041,-0.0406,-0.026,-0.0226,-0.0535,-0.0534,-0.0532,0,-0.0959,-0.0979,-0.1039,-0.1052,-0.1073,-0.1084,-0.1087,-0.1105,-0.1095,-0.1054,-0.1028,-0.0947,-0.0879,-0.0726,-0.0638,-0.0534,-0.0516,-0.0401,-0.0442,-0.0364,-0.0345,-0.0373,-0.0358,-0.0301,-0.0298,-0.0295,-0.0293,0,-0.0912,-0.0934,-0.0959,-0.0997,-0.1015,-0.1028,-0.1038,-0.1034,-0.1044,-0.1004,-0.094,-0.0883,-0.074,-0.0577,-0.0447,-0.039,-0.0325,-0.0345,-0.027,-0.0145,-0.0154,-0.0125,-0.0417,-0.0269,-0.0272,-0.0274,-0.0275,-0.0276,-0.0861,-0.0865,-0.0912,-0.0935,-0.0957,-0.0967,-0.0957,-0.0961,-0.0934,-0.086,-0.0845,-0.0703,-0.0517,-0.032,-0.0262,-0.0055,-0.0156,0.0,0.0002,-0.0032,-0.0002,-0.0244,-0.0082,-0.0084,-0.0085,-0.0086,-0.0086,0,-0.082,-0.0836,-0.0851,-0.0889,-0.0892,-0.0919,-0.0919,-0.0893,-0.0844,-0.075,-0.0668,-0.0394,-0.0176,-0.0017,0.0236,0.0308,0.0274,0.0335,0.0339,0.0335,0.0147,0.0154,0.0384,0.0384,0.0384,0.0384,0.0384,0.0384,-0.0805,-0.0818,-0.0834,-0.0836,-0.0843,-0.0833,-0.0823,-0.0771,-0.0699,-0.0504,-0.0317,-0.0204,0.0037,0.04,0.0625,0.0625,0.064,0.0633,0.0596,0.0496,0.0465,0.0435,0.0447,0.0734,0.0734,0.0805,0.0806,0.0807]}],[{"header":{"parameterUnit":"m.s-1","parameterCategory":2,"la1":30.2991,"la2":30.254,"lo1":-89.0895,"lo2":-89.0444,"dy":0.0017,"dx":0.0017,"nx":28,"ny":28,"refTime":"2024-10-21T21:00:00:Z","depth":"2","parameterNumber":2,"parameterNumberName":"U-component_of_CURRENTS"},"data":[0,0,0,0,0,0,0,0,0,0,0,0,0,0,0,0,0,0,0,0,0,0,0,0,0,0,0,0,0,0,0,0,0,0,0,0,0,0,0,0,0,0,0,0,0,0,0,0,0,0,0,0,0,0,0,0,0,0,0.0872,0.0872,0,0.088,0.088,0.088,0.0891,0.0891,0.0891,0.0892,0.0926,0.0927,0.0928,0,0,0,0,0,0,0,0,0,0,0,0,0,0.0934,0.0932,0.0872,0.0872,0.0872,0.088,0.088,0.088,0.0891,0.0891,0.0891,0.0892,0.0926,0.0927,0.0928,0,0,0,0,0,0,0,0,0,0,0,0,0,0.0921,0.0932,0.0872,0.0878,0.0879,0.088,0.088,0.088,0.0891,0.0891,0.0891,0.0892,0.0925,0.0927,0.0928,0.093,0,0,0.0931,0.0932,0,0,0,0,0,0,0,0,0.0922,0.0919,0.0877,0.0878,0.0879,0.0884,0.0914,0.0898,0.0891,0.0887,0.0892,0.0892,0.0914,0.0916,0.0917,0.0932,0.0933,0.0931,0.0932,0.0933,0.0933,0,0,0,0,0,0,0,0.0922,0.0919,0.0876,0.0877,0.0878,0.0904,0.0902,0.0912,0.09,0.0887,0.0888,0.0888,0.0915,0.0916,0.0918,0.0934,0.0931,0.0932,0.0933,0.0934,0.1031,0.1033,0,0,0,0,0,0,0.0916,0.0919,0.0875,0.0876,0.0901,0.0902,0.09,0.0883,0.0899,0.0902,0.0888,0.0889,0.0914,0.0917,0.092,0.0989,0.0933,0.0934,0.0934,0.1029,0.1031,0.1033,0,0,0,0,0,0,0.0917,0.0912,0.0875,0.0899,0.0896,0.09,0.0881,0.0883,0.091,0.0899,0.0903,0.0917,0.0914,0.0918,0.096,0.0988,0.0934,0.0935,0.1027,0.103,0.1032,0.1087,0,0,0,0,0,0,0.0919,0.0912,0.0918,0.0897,0.0894,0.09,0.0881,0.0883,0.0908,0.0909,0.0925,0.0926,0.0915,0.0959,0.0961,0.0989,0.0936,0.1024,0.1028,0.1031,0.1082,0.1091,0.1098,0,0,0,0,0,0.0921,0.0923,0.0917,0.0913,0.0894,0.0901,0.0903,0.0907,0.0909,0.0931,0.0945,0.0927,0.0983,0.0961,0.0964,0.0992,0.1023,0.1027,0.1031,0.1079,0.1089,0.1098,0,0,0,0,0,0,0.0955,0.0923,0.0917,0.091,0.0917,0.0903,0.0925,0.0926,0.0952,0.0963,0.0952,0.0955,0.1003,0.0996,0.0972,0.1033,0.1,0.1005,0.1035,0.1045,0.1053,0.1045,0.0937,0,0,0,0,0,0.0963,0.0953,0.0938,0.0936,0.0942,0.094,0.095,0.0955,0.0964,0.0977,0.0986,0.1001,0.1018,0.1031,0.1046,0.1079,0.1084,0.1101,0.1109,0.1115,0.1113,0.1177,0.119,0.1047,0.1047,0.1047,0,0,0.0977,0.0957,0.0954,0.0944,0.0948,0.0954,0.0948,0.0972,0.0981,0.0977,0.1012,0.1034,0.1036,0.1073,0.1093,0.1073,0.1156,0.1121,0.1126,0.112,0.1182,0.1196,0.1208,0.105,0.105,0.1049,0,0,0.0994,0.0983,0.0985,0.099,0.1,0.0993,0.1007,0.1016,0.1031,0.1065,0.1067,0.1112,0.1131,0.1143,0.1146,0.1209,0.12,0.1218,0.1247,0.131,0.1322,0.1332,0.1342,0.1354,0.1218,0.1218,0.1218,0,0.1019,0.1,0.0995,0.0999,0.1002,0.1011,0.1022,0.1034,0.106,0.108,0.1086,0.1148,0.1159,0.1197,0.122,0.1226,0.1246,0.1207,0.132,0.133,0.134,0.1348,0.136,0.1221,0.1221,0.122,0.122,0,0.1029,0.1026,0.1032,0.1024,0.1036,0.105,0.1055,0.1087,0.1106,0.1118,0.1183,0.1212,0.1248,0.1264,0.1258,0.1334,0.1319,0.1326,0.1292,0.1358,0.1362,0.1373,0.1225,0.1224,0.1223,0.1223,0,0,0.1048,0.1039,0.1045,0.1048,0.1049,0.1061,0.1081,0.1104,0.1131,0.1178,0.122,0.127,0.1306,0.1314,0.1332,0.1384,0.147,0.1388,0.139,0.1391,0.1583,0.1435,0.1432,0.1508,0.1511,0.1513,0.1552,0,0.106,0.1066,0.1057,0.1073,0.1077,0.1087,0.1101,0.1131,0.1161,0.121,0.1258,0.1308,0.1315,0.1354,0.141,0.1451,0.1505,0.1456,0.1525,0.1526,0.1381,0.1442,0.1277,0.1286,0.1562,0.1564,0.1565,0,0.1071,0.1069,0.1086,0.109,0.1097,0.1117,0.1153,0.117,0.1224,0.1254,0.1316,0.1348,0.1418,0.1432,0.1533,0.1506,0.1556,0.1587,0.159,0.1437,0.1398,0.127,0.1296,0.1584,0.1582,0.1581,0.158,0,0.1082,0.109,0.1104,0.1106,0.1116,0.1146,0.1164,0.1204,0.1223,0.1299,0.1325,0.1406,0.1449,0.1534,0.1572,0.1578,0.1671,0.1686,0.1598,0.1586,0.1447,0.1417,0.179,0.179,0.179,0.1789,0.1789,0,0.1081,0.1097,0.1123,0.1132,0.1165,0.1175,0.1223,0.1248,0.1291,0.1315,0.1364,0.139,0.1487,0.1531,0.1589,0.1593,0.1687,0.1603,0.1596,0.1457,0.1429,0.1689,0.1677,0.1791,0.1791,0.179,0.179,0,0.1085,0.1098,0.1117,0.115,0.1171,0.1204,0.1246,0.127,0.1308,0.1343,0.1367,0.1398,0.1443,0.1498,0.1608,0.1581,0.1625,0.1616,0.1406,0.1372,0.1497,0.1487,0.1527,0.1522,0.1518,0.1515,0.1512,0,0.1081,0.1093,0.1138,0.1157,0.1181,0.123,0.1254,0.129,0.1303,0.1333,0.134,0.1381,0.1375,0.1413,0.1397,0.1425,0.155,0.1281,0.1262,0.1485,0.1476,0.1472,0.1468,0.1107,0.1101,0.1096,0.1092,0,0.1066,0.1095,0.1107,0.1147,0.1187,0.1213,0.1252,0.1253,0.1281,0.1296,0.1282,0.1276,0.1257,0.1147,0.1135,0.1159,0.1251,0.1179,0.1508,0.1174,0.1085,0.1076,0.1088,0.1049,0.1053,0.1056,0.1059,0.1061,0.1058,0.1062,0.1084,0.1114,0.1159,0.1171,0.1162,0.1166,0.1161,0.1105,0.1171,0.1045,0.0999,0.0835,0.0854,0.086,0.0977,0.0938,0.0956,0.0978,0.0898,0.0805,0.0699,0.0701,0.0703,0.0705,0.0706,0,0.1004,0.1021,0.1044,0.1059,0.1062,0.1134,0.1131,0.1061,0.1002,0.0943,0.0904,0.0656,0.0567,0.0562,0.0466,0.0483,0.0545,0.0503,0.0553,0.0592,0.0628,0.0534,0.0238,0.0237,0.0236,0.0236,0,0,0.0974,0.0955,0.0955,0.094,0.0982,0.0964,0.0953,0.084,0.0744,0.0555,0.0417,0.0432,0.0411,0.0236,0.0279,0.0228,0.0427,0.0237,0.0598,0.0689,0.0724,0.0847,0.074,0,0,0,0,0]},{"header":{"parameterUnit":"m.s-1","parameterCategory":2,"la1":30.2991,"la2":30.254,"lo1":-89.0895,"lo2":-89.0444,"dy":0.0017,"dx":0.0017,"nx":28,"ny":28,"refTime":"2024-10-21T21:00:00:Z","depth":"2","parameterNumber":3,"parameterNumberName":"V-component_of_CURRENTS"},"data":[0,0,0,0,0,0,0,0,0,0,0,0,0,0,0,0,0,0,0,0,0,0,0,0,0,0,0,0,0,0,0,0,0,0,0,0,0,0,0,0,0,0,0,0,0,0,0,0,0,0,0,0,0,0,0,0,0,0,0.0298,0.0298,0,0.0309,0.0309,0.0309,0.0276,0.0275,0.0274,0.0273,0.02,0.0199,0.0198,0,0,0,0,0,0,0,0,0,0,0,0,0,0.0296,0.0296,0.0298,0.0298,0.0298,0.0309,0.0309,0.0309,0.0276,0.0275,0.0274,0.0273,0.02,0.0199,0.0198,0,0,0,0,0,0,0,0,0,0,0,0,0,0.0301,0.0296,0.0298,0.0283,0.0282,0.0309,0.0309,0.0309,0.0277,0.0275,0.0274,0.0272,0.0201,0.0199,0.0198,0.0218,0,0,0.0193,0.0192,0,0,0,0,0,0,0,0,0.03,0.0301,0.0285,0.0284,0.0283,0.029,0.0281,0.0275,0.0277,0.0279,0.0273,0.0271,0.0223,0.022,0.0226,0.0215,0.0212,0.0193,0.0192,0.0191,0.0191,0,0,0,0,0,0,0,0.03,0.03,0.0302,0.0286,0.0284,0.0292,0.0291,0.0281,0.0258,0.0278,0.0276,0.0278,0.0222,0.0228,0.0224,0.0211,0.0193,0.0192,0.0191,0.019,0.0144,0.0143,0,0,0,0,0,0,0.0298,0.03,0.0302,0.0303,0.0288,0.0293,0.0292,0.0289,0.026,0.0254,0.0279,0.0276,0.0231,0.0226,0.0221,0.0194,0.0191,0.019,0.0189,0.0144,0.0143,0.0143,0,0,0,0,0,0,0.0298,0.0298,0.0301,0.0302,0.0303,0.0294,0.0292,0.029,0.0276,0.0261,0.0254,0.0265,0.023,0.0223,0.0191,0.0193,0.0189,0.0188,0.0144,0.0144,0.0143,0.0171,0,0,0,0,0,0,0.0298,0.0298,0.0292,0.0302,0.0303,0.0315,0.0293,0.0291,0.0281,0.0277,0.0247,0.024,0.0228,0.0193,0.0189,0.019,0.0187,0.0145,0.0144,0.0143,0.0171,0.0172,0.0173,0,0,0,0,0,0.0298,0.0305,0.0292,0.0292,0.0296,0.0316,0.0318,0.0307,0.0282,0.0286,0.025,0.024,0.0186,0.0192,0.0187,0.0188,0.0145,0.0144,0.0144,0.017,0.0172,0.0173,0,0,0,0,0,0,0.0301,0.0303,0.0288,0.0294,0.03,0.031,0.0311,0.0301,0.028,0.026,0.0236,0.0228,0.0201,0.0188,0.0194,0.0171,0.0164,0.0163,0.0186,0.0187,0.0188,0.0223,0.0185,0,0,0,0,0,0.0299,0.0305,0.0306,0.031,0.0308,0.0303,0.0306,0.0298,0.0284,0.0273,0.0249,0.0219,0.0201,0.0186,0.017,0.0158,0.018,0.0154,0.0155,0.0156,0.0181,0.0223,0.0231,0.0141,0.0141,0.0141,0,0,0.0301,0.0304,0.0305,0.0312,0.0308,0.0319,0.03,0.0302,0.0304,0.0268,0.0247,0.0221,0.0197,0.0183,0.0171,0.0168,0.0188,0.0156,0.0157,0.0181,0.0223,0.0233,0.0241,0.014,0.014,0.014,0,0,0.0323,0.0307,0.0318,0.0323,0.0321,0.0322,0.0318,0.0313,0.0299,0.0282,0.0254,0.0235,0.0197,0.0196,0.0187,0.0186,0.0192,0.0162,0.0198,0.0238,0.0247,0.0255,0.028,0.029,0.0163,0.0164,0.0164,0,0.0315,0.0335,0.0327,0.0339,0.0342,0.0321,0.0333,0.0327,0.0311,0.0307,0.0273,0.0244,0.0216,0.0225,0.0214,0.0193,0.0207,0.0196,0.0243,0.0251,0.0259,0.0283,0.0294,0.0165,0.0165,0.0164,0.0164,0,0.0355,0.0358,0.0364,0.0369,0.0375,0.0381,0.0371,0.0363,0.0333,0.0331,0.0318,0.0288,0.0276,0.0257,0.023,0.0265,0.0253,0.0241,0.0248,0.0271,0.0293,0.0304,0.0167,0.0166,0.0166,0.0165,0,0,0.0352,0.0383,0.038,0.0387,0.0386,0.0397,0.0396,0.0403,0.0407,0.0382,0.0401,0.0363,0.0346,0.0336,0.0306,0.0334,0.0383,0.0306,0.0308,0.0346,0.0462,0.0446,0.0456,0.0376,0.0378,0.038,0.0451,0,0.0372,0.0413,0.0418,0.044,0.0453,0.0437,0.0444,0.0445,0.0433,0.0445,0.043,0.0421,0.0375,0.0357,0.0385,0.0385,0.0415,0.0365,0.0422,0.0424,0.042,0.047,0.0438,0.0498,0.0461,0.0463,0.0465,0,0.04,0.0424,0.0456,0.0477,0.0477,0.0478,0.0486,0.0489,0.0503,0.0492,0.0499,0.0486,0.0509,0.0465,0.0514,0.048,0.0476,0.0482,0.0484,0.0476,0.043,0.047,0.0519,0.0483,0.0482,0.048,0.0479,0,0.0418,0.0444,0.0473,0.0478,0.0499,0.0492,0.0486,0.0494,0.0496,0.0516,0.0524,0.0558,0.0554,0.0587,0.0572,0.0546,0.0639,0.0606,0.0597,0.0595,0.0586,0.0579,0.0662,0.0662,0.0662,0.0662,0.0662,0,0.0445,0.046,0.0473,0.0487,0.0499,0.0496,0.0501,0.0503,0.0513,0.0526,0.0535,0.0564,0.0583,0.0623,0.0623,0.0649,0.0678,0.0632,0.0627,0.059,0.0583,0.0582,0.0572,0.0664,0.0664,0.0663,0.0663,0,0.0463,0.0478,0.0505,0.0515,0.0509,0.0507,0.0489,0.0502,0.0497,0.0519,0.0521,0.0574,0.0623,0.065,0.0704,0.0696,0.0733,0.0728,0.0675,0.0663,0.0651,0.0641,0.0751,0.0752,0.0752,0.0752,0.0753,0,0.0486,0.0501,0.0515,0.052,0.0512,0.0501,0.0499,0.0488,0.0498,0.0525,0.0549,0.0598,0.0664,0.0753,0.0749,0.0782,0.0753,0.0743,0.0696,0.0684,0.0668,0.0657,0.0647,0.0687,0.0686,0.0686,0.0686,0,0.0517,0.0511,0.0532,0.0537,0.0528,0.0535,0.0518,0.0529,0.0521,0.0541,0.0593,0.0656,0.0724,0.0769,0.0789,0.079,0.0741,0.0737,0.0771,0.0659,0.0626,0.0608,0.06,0.0683,0.0683,0.0684,0.0684,0.0684,0.0528,0.0541,0.0554,0.0557,0.0551,0.0559,0.0564,0.0569,0.0588,0.0621,0.0661,0.0747,0.079,0.085,0.0792,0.0701,0.0751,0.071,0.071,0.071,0.0681,0.0649,0.0705,0.0705,0.0705,0.0706,0.0706,0,0.0553,0.0556,0.0571,0.0584,0.0594,0.0563,0.0577,0.0592,0.0621,0.0666,0.0719,0.0779,0.0832,0.0814,0.0682,0.0647,0.0619,0.0598,0.0567,0.0573,0.0577,0.0538,0.0526,0.0524,0.0523,0.0522,0,0,0.0565,0.059,0.06,0.0622,0.0609,0.0611,0.0615,0.0636,0.0667,0.0718,0.0762,0.0913,0.0905,0.0781,0.0704,0.0579,0.0568,0.055,0.071,0.0687,0.069,0.0671,0.0622,0,0,0,0,0]}],[{"header":{"parameterUnit":"m.s-1","parameterCategory":2,"la1":30.2991,"la2":30.254,"lo1":-89.0895,"lo2":-89.0444,"dy":0.0017,"dx":0.0017,"nx":28,"ny":28,"refTime":"2024-10-21T21:00:00:Z","depth":"4","parameterNumber":2,"parameterNumberName":"U-component_of_CURRENTS"},"data":[0,0,0,0,0,0,0,0,0,0,0,0,0,0,0,0,0,0,0,0,0,0,0,0,0,0,0,0,0,0,0,0,0,0,0,0,0,0,0,0,0,0,0,0,0,0,0,0,0,0,0,0,0,0,0,0,0,0,-0.0297,-0.0297,0,-0.0289,-0.0289,-0.0289,-0.0279,-0.0279,-0.0279,-0.0279,-0.0255,-0.0254,-0.0254,0,0,0,0,0,0,0,0,0,0,0,0,0,-0.033,-0.033,-0.0297,-0.0297,-0.0297,-0.0289,-0.0289,-0.0289,-0.0279,-0.0279,-0.0279,-0.0279,-0.0255,-0.0254,-0.0254,0,0,0,0,0,0,0,0,0,0,0,0,0,-0.0318,-0.0329,-0.0297,-0.0291,-0.0291,-0.0289,-0.0289,-0.0289,-0.0279,-0.0279,-0.0279,-0.0279,-0.0255,-0.0255,-0.0254,-0.0252,0,0,-0.0251,-0.0251,0,0,0,0,0,0,0,0,-0.0319,-0.0317,-0.0292,-0.0292,-0.0291,-0.0285,-0.0292,-0.0276,-0.0279,-0.0283,-0.0279,-0.0279,-0.0264,-0.0263,-0.0261,-0.0251,-0.025,-0.0251,-0.0251,-0.025,-0.025,0,0,0,0,0,0,0,-0.032,-0.0317,-0.0293,-0.0292,-0.0291,-0.0299,-0.0296,-0.0289,-0.0274,-0.0283,-0.0282,-0.0282,-0.0264,-0.0262,-0.026,-0.025,-0.0251,-0.0251,-0.025,-0.025,-0.0213,-0.0212,0,0,0,0,0,0,-0.032,-0.0318,-0.0294,-0.0293,-0.0305,-0.0298,-0.0296,-0.0287,-0.0274,-0.0273,-0.0282,-0.0282,-0.0263,-0.0261,-0.0259,-0.0229,-0.025,-0.025,-0.0249,-0.0213,-0.0213,-0.0212,0,0,0,0,0,0,-0.0321,-0.0318,-0.0294,-0.0306,-0.0304,-0.0298,-0.0288,-0.0287,-0.0288,-0.0274,-0.0272,-0.0285,-0.0263,-0.0261,-0.0257,-0.023,-0.0249,-0.0249,-0.0214,-0.0213,-0.0212,-0.0187,0,0,0,0,0,0,-0.0322,-0.0318,-0.0317,-0.0306,-0.0303,-0.0294,-0.0288,-0.0287,-0.0288,-0.0288,-0.0276,-0.0273,-0.0263,-0.0258,-0.0256,-0.0229,-0.0248,-0.0214,-0.0213,-0.0212,-0.0189,-0.0186,-0.0183,0,0,0,0,0,-0.0323,-0.0321,-0.0316,-0.0314,-0.03,-0.0294,-0.0294,-0.0289,-0.0289,-0.0289,-0.0283,-0.0274,-0.0249,-0.0258,-0.0255,-0.0227,-0.0215,-0.0214,-0.0213,-0.019,-0.0186,-0.0183,0,0,0,0,0,0,-0.0335,-0.0319,-0.0314,-0.0307,-0.0302,-0.0293,-0.0296,-0.0293,-0.0289,-0.0289,-0.0277,-0.0274,-0.026,-0.0253,-0.0262,-0.0214,-0.0227,-0.0225,-0.021,-0.0207,-0.0204,-0.02,-0.0247,0,0,0,0,0,-0.0337,-0.0332,-0.0318,-0.0315,-0.0312,-0.0306,-0.0305,-0.03,-0.0294,-0.0293,-0.0284,-0.027,-0.0252,-0.0239,-0.0231,-0.0209,-0.0204,-0.0187,-0.0184,-0.0182,-0.0177,-0.0141,-0.0134,-0.0208,-0.0208,-0.0208,0,0,-0.0345,-0.0334,-0.0333,-0.0318,-0.0314,-0.031,-0.0305,-0.0304,-0.0298,-0.0291,-0.0285,-0.027,-0.0249,-0.0223,-0.0214,-0.0212,-0.0163,-0.0181,-0.0178,-0.0175,-0.0139,-0.0132,-0.0125,-0.0207,-0.0207,-0.0208,0,0,-0.0354,-0.0343,-0.0341,-0.0334,-0.0326,-0.032,-0.032,-0.0311,-0.0305,-0.0297,-0.0284,-0.0258,-0.0239,-0.0209,-0.0192,-0.0172,-0.0158,-0.0161,-0.013,-0.0094,-0.0088,-0.0082,-0.0085,-0.008,-0.0147,-0.0147,-0.0147,0,-0.0361,-0.0352,-0.0342,-0.0336,-0.0333,-0.0324,-0.0322,-0.0314,-0.0305,-0.0291,-0.0294,-0.0242,-0.0229,-0.0177,-0.0161,-0.0163,-0.0152,-0.0143,-0.009,-0.0084,-0.0078,-0.0083,-0.0077,-0.0146,-0.0146,-0.0146,-0.0146,0,-0.0364,-0.0359,-0.0359,-0.0345,-0.0341,-0.0339,-0.0325,-0.0317,-0.0308,-0.0289,-0.0249,-0.0224,-0.0181,-0.0168,-0.0155,-0.0096,-0.0106,-0.0099,-0.0097,-0.0069,-0.0076,-0.0071,-0.0144,-0.0144,-0.0145,-0.0145,0,0,-0.0366,-0.0361,-0.036,-0.0356,-0.0344,-0.0339,-0.033,-0.0307,-0.0287,-0.0263,-0.0226,-0.0179,-0.0146,-0.0125,-0.0096,-0.0059,-0.0015,-0.0051,-0.005,-0.0053,0.0044,0.0,0.0002,0.0012,0.0013,0.0015,0.0016,0,-0.0369,-0.0363,-0.0361,-0.0358,-0.0352,-0.0341,-0.033,-0.0307,-0.028,-0.0243,-0.0195,-0.015,-0.0133,-0.0095,-0.0054,-0.0025,0.0005,-0.0018,0.0016,0.0016,-0.0024,0.0009,0.002,0.002,0.0021,0.0022,0.0023,0,-0.0365,-0.0362,-0.0361,-0.0354,-0.0351,-0.0348,-0.0318,-0.0302,-0.0247,-0.0219,-0.0155,-0.0119,-0.0049,-0.0045,0.0028,0.0018,0.0038,0.005,0.0051,0.0008,-0.0016,-0.0009,0.0033,0.0032,0.0031,0.003,0.003,0,-0.036,-0.036,-0.036,-0.0357,-0.0347,-0.0342,-0.0331,-0.0289,-0.0266,-0.0189,-0.0155,-0.0077,-0.0031,0.0016,0.0044,0.0053,0.0096,0.0108,0.0078,0.0073,0.01,0.0094,0.0155,0.0155,0.0155,0.0155,0.0155,0,-0.0352,-0.0351,-0.0358,-0.0353,-0.0347,-0.0337,-0.0312,-0.0284,-0.0237,-0.0198,-0.0129,-0.0092,-0.0007,0.0024,0.005,0.007,0.0103,0.0086,0.0082,0.0106,0.0101,0.0102,0.0096,0.0155,0.0155,0.0155,0.0155,0,-0.0339,-0.0344,-0.0343,-0.0343,-0.0342,-0.0332,-0.0311,-0.0285,-0.0238,-0.0184,-0.0156,-0.0088,-0.0038,0.0005,0.0063,0.007,0.0091,0.0084,0.0075,0.0069,0.0043,0.0038,0.0073,0.0072,0.0071,0.007,0.0069,0,-0.0331,-0.0331,-0.0337,-0.0337,-0.0338,-0.0324,-0.0312,-0.0279,-0.0254,-0.0194,-0.0172,-0.0112,-0.0066,-0.0022,0.0013,0.0049,0.0052,0.0053,0.0087,0.0047,0.004,0.0037,0.0034,0.0067,0.0067,0.0067,0.0066,0,-0.0319,-0.0326,-0.0327,-0.0329,-0.0326,-0.0316,-0.0301,-0.0289,-0.0245,-0.0207,-0.0159,-0.0119,-0.0078,-0.0032,-0.0012,0.001,0.0055,0.0042,0.0046,0.0078,0.0041,0.0034,0.0032,0.0063,0.0063,0.0063,0.0064,0,-0.0313,-0.0316,-0.0325,-0.0324,-0.0321,-0.0314,-0.0305,-0.0279,-0.0252,-0.0188,-0.0188,-0.0128,-0.0087,-0.0057,-0.0049,-0.0021,0.0001,0.0014,0.002,0.0024,0.0009,-0.0046,-0.0046,0,0,0,0,0,-0.0305,-0.0312,-0.0319,-0.032,-0.0317,-0.0317,-0.0301,-0.0291,-0.0261,-0.0219,-0.0196,-0.0155,-0.0107,-0.0097,-0.0069,-0.0083,-0.0015,-0.0055,-0.0002,0.0042,0.0046,0.0033,0,0,0,0,0,0,-0.0303,-0.031,-0.032,-0.0319,-0.0321,-0.0315,-0.0309,-0.0291,-0.0266,-0.0229,-0.02,-0.0161,-0.0117,-0.0111,-0.007,-0.0065,-0.0032,-0.0025,-0.0025,0.0039,0.0043,0.0047,0.0035,0,0,0,0,0]},{"header":{"parameterUnit":"m.s-1","parameterCategory":2,"la1":30.2991,"la2":30.254,"lo1":-89.0895,"lo2":-89.0444,"dy":0.0017,"dx":0.0017,"nx":28,"ny":28,"refTime":"2024-10-21T21:00:00:Z","depth":"4","parameterNumber":3,"parameterNumberName":"V-component_of_CURRENTS"},"data":[0,0,0,0,0,0,0,0,0,0,0,0,0,0,0,0,0,0,0,0,0,0,0,0,0,0,0,0,0,0,0,0,0,0,0,0,0,0,0,0,0,0,0,0,0,0,0,0,0,0,0,0,0,0,0,0,0,0,0.0431,0.0431,0,0.045,0.045,0.045,0.0477,0.0477,0.0477,0.0478,0.0518,0.0518,0.0519,0,0,0,0,0,0,0,0,0,0,0,0,0,0.0408,0.0408,0.0431,0.0431,0.0432,0.045,0.045,0.045,0.0477,0.0477,0.0478,0.0478,0.0517,0.0518,0.0519,0,0,0,0,0,0,0,0,0,0,0,0,0,0.0422,0.0409,0.0431,0.0446,0.0448,0.045,0.045,0.045,0.0476,0.0477,0.0478,0.0478,0.0517,0.0518,0.0519,0.0513,0,0,0.0522,0.0523,0,0,0,0,0,0,0,0,0.0421,0.0423,0.0444,0.0445,0.0447,0.0461,0.0456,0.0472,0.0476,0.0466,0.0478,0.0479,0.05,0.0502,0.0505,0.0515,0.0517,0.0522,0.0523,0.0524,0.0524,0,0,0,0,0,0,0,0.042,0.0422,0.0439,0.0444,0.0446,0.0449,0.0452,0.046,0.048,0.0467,0.0469,0.047,0.0501,0.0504,0.0506,0.0518,0.0522,0.0523,0.0524,0.0524,0.0557,0.0557,0,0,0,0,0,0,0.0417,0.0421,0.0438,0.044,0.0435,0.0449,0.0452,0.0456,0.048,0.0484,0.0469,0.0471,0.0502,0.0505,0.0508,0.0539,0.0523,0.0524,0.0525,0.0556,0.0557,0.0557,0,0,0,0,0,0,0.0416,0.0418,0.0438,0.043,0.0433,0.0449,0.0453,0.0456,0.0469,0.0481,0.0486,0.048,0.0502,0.0506,0.0526,0.054,0.0525,0.0526,0.0556,0.0556,0.0557,0.0579,0,0,0,0,0,0,0.0416,0.0418,0.0426,0.043,0.0433,0.0444,0.0453,0.0456,0.0468,0.047,0.0491,0.0495,0.0503,0.0525,0.0527,0.0541,0.0527,0.0556,0.0556,0.0557,0.0578,0.058,0.0581,0,0,0,0,0,0.0415,0.0421,0.0427,0.0429,0.0442,0.0444,0.0446,0.0459,0.0468,0.0473,0.0491,0.0495,0.0529,0.0526,0.0529,0.0543,0.0555,0.0556,0.0557,0.0577,0.0579,0.0581,0,0,0,0,0,0,0.0413,0.0424,0.0431,0.044,0.0444,0.0449,0.0457,0.0462,0.0479,0.0488,0.0499,0.0504,0.0528,0.0528,0.0524,0.0552,0.0542,0.0543,0.0557,0.0559,0.0561,0.0553,0.0528,0,0,0,0,0,0.0416,0.0425,0.0432,0.0438,0.0444,0.0451,0.0457,0.0464,0.0475,0.0484,0.0501,0.0516,0.053,0.0539,0.0552,0.0565,0.0545,0.0575,0.0576,0.0578,0.0573,0.0536,0.0534,0.0559,0.0559,0.0559,0,0,0.0415,0.0423,0.0428,0.0439,0.0446,0.0452,0.0457,0.0466,0.0478,0.0485,0.0515,0.0527,0.0535,0.0556,0.0566,0.0559,0.0565,0.0579,0.058,0.0574,0.0537,0.0534,0.0532,0.0559,0.0559,0.0559,0,0,0.0413,0.0428,0.0435,0.0442,0.0454,0.0458,0.0461,0.0475,0.0493,0.0517,0.0525,0.0537,0.0569,0.0569,0.0574,0.0589,0.0578,0.0602,0.0605,0.0571,0.0568,0.0565,0.0555,0.0551,0.0601,0.0601,0.0601,0,0.0414,0.0425,0.0436,0.0445,0.0452,0.0461,0.0468,0.0483,0.0503,0.0517,0.0533,0.0562,0.0571,0.0576,0.0589,0.0593,0.0581,0.0598,0.0572,0.0569,0.0566,0.0555,0.0551,0.0602,0.0602,0.0602,0.0602,0,0.0417,0.0429,0.0434,0.045,0.0457,0.0466,0.0483,0.0502,0.0526,0.054,0.0567,0.0576,0.0589,0.0597,0.0605,0.0591,0.0594,0.058,0.0565,0.0564,0.0554,0.0549,0.0604,0.0603,0.0603,0.0603,0,0,0.041,0.0433,0.0437,0.0446,0.0464,0.0469,0.0493,0.0512,0.0528,0.0557,0.057,0.0597,0.0602,0.0606,0.0607,0.0581,0.0561,0.0579,0.0576,0.0567,0.0503,0.0508,0.0503,0.0543,0.0542,0.0541,0.0511,0,0.0412,0.0428,0.044,0.0454,0.0463,0.0482,0.0503,0.0523,0.0547,0.0563,0.0572,0.0592,0.0605,0.0615,0.0591,0.0569,0.0545,0.0571,0.0506,0.0504,0.0506,0.0496,0.0537,0.0507,0.0506,0.0505,0.0505,0,0.0412,0.0425,0.0444,0.0464,0.0471,0.0488,0.0517,0.054,0.0561,0.0581,0.0591,0.0595,0.0585,0.0585,0.0542,0.0561,0.0536,0.0512,0.051,0.0499,0.0498,0.0503,0.0495,0.0496,0.0496,0.0497,0.0498,0,0.0404,0.0425,0.0442,0.0451,0.0478,0.0503,0.0527,0.0555,0.0581,0.0595,0.0606,0.0589,0.0593,0.0548,0.0532,0.0531,0.0473,0.0458,0.0436,0.0437,0.0432,0.0435,0.0406,0.0406,0.0406,0.0406,0.0406,0,0.0398,0.0414,0.0448,0.0461,0.0492,0.0516,0.0553,0.0575,0.0602,0.0626,0.0624,0.0614,0.0583,0.0556,0.0522,0.0478,0.0467,0.0432,0.0421,0.0446,0.0451,0.043,0.0433,0.0405,0.0405,0.0405,0.0406,0,0.0386,0.041,0.0433,0.0472,0.0492,0.0523,0.0582,0.0598,0.0636,0.066,0.0669,0.064,0.0613,0.0587,0.0516,0.0476,0.0423,0.0408,0.0461,0.0455,0.041,0.0415,0.036,0.036,0.036,0.036,0.036,0,0.0382,0.0394,0.0441,0.0467,0.0496,0.0546,0.0575,0.0619,0.0632,0.0668,0.0661,0.0654,0.0638,0.0544,0.0503,0.0447,0.0435,0.0398,0.0378,0.0406,0.0401,0.0406,0.0411,0.0359,0.0359,0.0359,0.0359,0,0.0367,0.0389,0.0405,0.0467,0.0508,0.0544,0.0591,0.0599,0.0649,0.0673,0.0655,0.0626,0.0594,0.0527,0.051,0.0455,0.0411,0.0395,0.0394,0.0375,0.0404,0.0401,0.0406,0.0358,0.0358,0.0358,0.0359,0,0.0355,0.0366,0.0401,0.0459,0.0511,0.0549,0.0565,0.0583,0.0606,0.0648,0.0627,0.0616,0.0605,0.053,0.0494,0.047,0.0441,0.0391,0.039,0.039,0.041,0.0452,0.0405,0,0,0,0,0,0.0339,0.0363,0.0397,0.0462,0.0515,0.0554,0.0578,0.0585,0.0619,0.0609,0.0633,0.061,0.0564,0.0513,0.049,0.0478,0.0434,0.0443,0.0376,0.0354,0.0355,0.0373,0,0,0,0,0,0,0.033,0.036,0.0385,0.0463,0.0515,0.0568,0.0584,0.0596,0.0579,0.0607,0.0573,0.0587,0.0532,0.0608,0.0493,0.0483,0.0426,0.0432,0.043,0.0353,0.0354,0.0355,0.0374,0,0,0,0,0]}]]